Regional Weather Roundup
Issued by NWS Little Rock, AR

Home | Current Version | Previous Version | Text Only | Print | Product List | Glossary On
Versions: 1 2 3 4 5 6 7 8 9 10 11 12 13 14 15 16 17 18 19 20 21 22 23 24 25 26 27 28 29 30 31 32 33 34 35 36 37 38 39 40 41 42 43 44 45 46 47 48 49 50
000
ASUS44 KLZK 270905
RWRLZK

WEATHER ROUNDUP FOR ARKANSAS
NATIONAL WEATHER SERVICE LITTLE ROCK AR
300 AM CST TUE JAN 27 2015

NOTE: "FAIR" INDICATES FEW OR NO CLOUDS BELOW 12,000 FEET WITH NO
SIGNIFICANT WEATHER AND/OR OBSTRUCTIONS TO VISIBILITY.

ARZ001-003-010-029-271000-
NORTHWEST ARKANSAS

CITY           SKY/WX    TMP DP  RH WIND       PRES   REMARKS
FAYETTEVILLE   CLEAR     32  29  88 CALM      30.07R
FORT SMITH     CLEAR     39  33  79 CALM      30.05R
HARRISON       CLEAR     47  34  60 NW8       30.03R
BENTONVILLE    CLEAR     36  28  75 CALM      30.07S
ROGERS         CLEAR     43  34  70 NW3       30.07R
SILOAM SPGS    CLEAR    N/A N/A N/A N5        30.07S
HIGHFILL       CLEAR     38  32  79 N5        30.06R
$$

ARZ004-005-016-271000-
NORTH CENTRAL ARKANSAS

CITY           SKY/WX    TMP DP  RH WIND       PRES   REMARKS
BATESVILLE     CLEAR     45  34  65 W3        30.00S
FLIPPIN        CLEAR     43  30  61 W3        30.02R
MTN HOME       CLEAR     42  34  73 NW3       30.01R
$$

ARZ040-041-271000-
WEST CENTRAL ARKANSAS

CITY           SKY/WX    TMP DP  RH WIND       PRES   REMARKS
MENA           CLEAR     39  36  87 CALM      30.05S
MOUNT IDA      CLEAR     41  35  79 CALM      30.01R
$$

ARZ009-017-025-026-028-271000-
NORTHEAST ARKANSAS

CITY           SKY/WX    TMP DP  RH WIND       PRES   REMARKS
JONESBORO      CLEAR     41  34  76 NW6       29.98R
NEWPORT        CLEAR     42  34  73 W7        30.01R
WALNUT RIDGE   CLEAR     43  32  65 W10       29.98R
BLYTHEVILLE    CLEAR     35  32  88 W9        29.96R WCI  28
$$

ARZ022-023-033-042-044-271000-
CENTRAL ARKANSAS

CITY           SKY/WX    TMP DP  RH WIND       PRES   REMARKS
LITTLE ROCK    CLEAR     42  33  70 W5        30.03R
N LITTLE ROCK    N/A     51  39  63 W6        30.03R
JACKSONVILLE   CLEAR     39  34  80 W3        30.02R
SEARCY         CLEAR     41  34  76 NW5       30.03R
HOT SPRINGS    CLEAR     41  36  82 W6        30.03R
RUSSELLVILLE   CLEAR     34  32  92 CALM      30.03R
CLINTON        FAIR      30  28  93 CALM      30.05S FOG
$$

ARZ036-271000-
EAST ARKANSAS

CITY           SKY/WX    TMP DP  RH WIND       PRES   REMARKS
WEST MEMPHIS   CLEAR     37  34  89 W3        29.98R
$$

ARZ050-053-066-070-073-271000-
SOUTHWEST ARKANSAS

CITY           SKY/WX    TMP DP  RH WIND       PRES   REMARKS
ARKADELPHIA    FAIR      37  37 100 CALM      30.05R
CAMDEN         CLEAR     34  32  93 CALM      30.04S
TEXARKANA      CLEAR     43  36  76 SW7       30.05R
EL DORADO      CLEAR     39  35  86 W3        30.04S
DE QUEEN       CLEAR     35  34  96 CALM      30.04R
$$

ARZ056-057-069-271000-
SOUTHEAST ARKANSAS

CITY           SKY/WX    TMP DP  RH WIND       PRES   REMARKS
PINE BLUFF     CLEAR     44  35  70 W5        30.02R
STUTTGART      CLEAR     41  34  75 W7        30.02R
MONTICELLO     CLEAR     45  35  68 W6        30.02S

$$





USA.gov is the U.S. government's official web portal to all federal, state and local government web resources and services.